Wetterdaten: Dienstag, 07.10.2014
Datum Zeit Temp. A. Feuchte A. Luftdruck Regen Wind Richtung Richtung Sonnenschein ET UV Solar Taupunkt Windchill Windben Empfang
07.10.2014 00:00 8,7 C 84 % 1010,1 hPa 0,0 l/m 0,0 km/h (0 Bft) SO 134 0 min 0,000 mm 0,0 UV-I 0 W/m 6,2 C 8,7 C 0,0 km/h (0 Bft) 0,00 %
07.10.2014 00:15 8,4 C 85 % 1010,2 hPa 0,0 l/m 0,0 km/h (0 Bft) S-SO 159 0 min 0,000 mm 0,0 UV-I 0 W/m 6,0 C 8,4 C 0,0 km/h (0 Bft) 0,00 %
07.10.2014 00:30 8,2 C 86 % 1010,1 hPa 0,0 l/m 0,0 km/h (0 Bft) S-SO 158 0 min 0,000 mm 0,0 UV-I 0 W/m 6,0 C 8,2 C 0,0 km/h (0 Bft) 0,00 %
07.10.2014 00:45 8,1 C 86 % 1010,1 hPa 0,0 l/m 0,0 km/h (0 Bft) S-SO 158 0 min 0,000 mm 0,0 UV-I 0 W/m 5,9 C 8,1 C 0,0 km/h (0 Bft) 0,00 %
07.10.2014 01:00 7,9 C 86 % 1010,4 hPa 0,0 l/m 0,0 km/h (0 Bft) S-SO 158 0 min 0,000 mm 0,0 UV-I 0 W/m 5,7 C 7,9 C 0,0 km/h (0 Bft) 0,00 %
07.10.2014 01:15 7,7 C 86 % 1010,3 hPa 0,0 l/m 0,0 km/h (0 Bft) S-SO 159 0 min 0,000 mm 0,0 UV-I 0 W/m 5,5 C 7,7 C 0,0 km/h (0 Bft) 0,00 %
07.10.2014 01:30 7,5 C 87 % 1010,4 hPa 0,0 l/m 0,0 km/h (0 Bft) S-SO 160 0 min 0,000 mm 0,0 UV-I 0 W/m 5,5 C 7,5 C 0,0 km/h (0 Bft) 0,00 %
07.10.2014 01:45 7,3 C 87 % 1010,5 hPa 0,0 l/m 0,0 km/h (0 Bft) S 184 0 min 0,000 mm 0,0 UV-I 0 W/m 5,3 C 7,3 C 0,0 km/h (0 Bft) 0,00 %
07.10.2014 02:00 7,3 C 88 % 1010,4 hPa 0,0 l/m 0,0 km/h (0 Bft) S 172 0 min 0,000 mm 0,0 UV-I 0 W/m 5,4 C 7,3 C 0,0 km/h (0 Bft) 0,00 %
07.10.2014 02:15 7,2 C 88 % 1010,3 hPa 0,0 l/m 0,0 km/h (0 Bft) S 181 0 min 0,000 mm 0,0 UV-I 0 W/m 5,3 C 7,2 C 0,0 km/h (0 Bft) 0,00 %
07.10.2014 02:30 7,1 C 88 % 1010,2 hPa 0,0 l/m 0,0 km/h (0 Bft) S 191 0 min 0,000 mm 0,0 UV-I 0 W/m 5,2 C 7,1 C 0,0 km/h (0 Bft) 0,00 %
07.10.2014 02:45 6,8 C 88 % 1010,3 hPa 0,0 l/m 0,0 km/h (0 Bft) S-SW 194 0 min 0,000 mm 0,0 UV-I 0 W/m 5,0 C 6,8 C 0,0 km/h (0 Bft) 0,00 %
07.10.2014 03:00 6,6 C 88 % 1010,3 hPa 0,0 l/m 0,0 km/h (0 Bft) S 182 0 min 0,000 mm 0,0 UV-I 0 W/m 4,8 C 6,6 C 0,0 km/h (0 Bft) 0,00 %
07.10.2014 03:15 6,4 C 88 % 1010,4 hPa 0,0 l/m 0,0 km/h (0 Bft) S 182 0 min 0,000 mm 0,0 UV-I 0 W/m 4,6 C 6,4 C 0,0 km/h (0 Bft) 0,00 %
07.10.2014 03:30 6,3 C 88 % 1010,2 hPa 0,0 l/m 0,0 km/h (0 Bft) S 179 0 min 0,000 mm 0,0 UV-I 0 W/m 4,5 C 6,3 C 0,0 km/h (0 Bft) 0,00 %
07.10.2014 03:45 6,2 C 89 % 1010,4 hPa 0,0 l/m 0,0 km/h (0 Bft) S 179 0 min 0,000 mm 0,0 UV-I 0 W/m 4,5 C 6,2 C 0,0 km/h (0 Bft) 0,00 %
07.10.2014 04:00 6,2 C 89 % 1010,2 hPa 0,0 l/m 0,0 km/h (0 Bft) S 179 0 min 0,000 mm 0,0 UV-I 0 W/m 4,5 C 6,2 C 0,0 km/h (0 Bft) 0,00 %
07.10.2014 04:15 6,0 C 88 % 1010,3 hPa 0,0 l/m 0,0 km/h (0 Bft) S 182 0 min 0,000 mm 0,0 UV-I 0 W/m 4,2 C 6,0 C 0,0 km/h (0 Bft) 0,00 %
07.10.2014 04:30 5,8 C 88 % 1010,2 hPa 0,0 l/m 0,0 km/h (0 Bft) S 173 0 min 0,000 mm 0,0 UV-I 0 W/m 4,0 C 5,8 C 0,0 km/h (0 Bft) 0,00 %
07.10.2014 04:45 5,8 C 89 % 1010,3 hPa 0,0 l/m 0,0 km/h (0 Bft) S 176 0 min 0,000 mm 0,0 UV-I 0 W/m 4,1 C 5,8 C 0,0 km/h (0 Bft) 0,00 %
07.10.2014 05:00 6,0 C 89 % 1010,4 hPa 0,0 l/m 0,0 km/h (0 Bft) S-SW 195 0 min 0,000 mm 0,0 UV-I 0 W/m 4,3 C 6,0 C 0,0 km/h (0 Bft) 0,00 %
07.10.2014 05:15 6,1 C 89 % 1010,3 hPa 0,0 l/m 0,0 km/h (0 Bft) S-SW 195 0 min 0,000 mm 0,0 UV-I 0 W/m 4,4 C 6,1 C 0,0 km/h (0 Bft) 0,00 %
07.10.2014 05:30 5,9 C 89 % 1010,5 hPa 0,0 l/m 0,0 km/h (0 Bft) S-SW 195 0 min 0,000 mm 0,0 UV-I 0 W/m 4,2 C 5,9 C 0,0 km/h (0 Bft) 0,00 %
07.10.2014 05:45 5,6 C 89 % 1010,7 hPa 0,0 l/m 0,0 km/h (0 Bft) S 184 0 min 0,000 mm 0,0 UV-I 0 W/m 3,9 C 5,6 C 0,0 km/h (0 Bft) 0,00 %
07.10.2014 06:00 5,4 C 89 % 1010,9 hPa 0,0 l/m 0,0 km/h (0 Bft) S 187 0 min 0,000 mm 0,0 UV-I 0 W/m 3,7 C 5,4 C 0,0 km/h (0 Bft) 0,00 %
07.10.2014 06:15 5,3 C 89 % 1010,8 hPa 0,0 l/m 0,0 km/h (0 Bft) S 182 0 min 0,000 mm 0,0 UV-I 0 W/m 3,6 C 5,3 C 0,0 km/h (0 Bft) 0,00 %
07.10.2014 06:30 5,2 C 90 % 1010,8 hPa 0,0 l/m 0,0 km/h (0 Bft) S 176 0 min 0,000 mm 0,0 UV-I 0 W/m 3,7 C 5,2 C 0,0 km/h (0 Bft) 0,00 %
07.10.2014 06:45 5,4 C 89 % 1010,8 hPa 0,0 l/m 0,0 km/h (0 Bft) S 175 0 min 0,000 mm 0,0 UV-I 0 W/m 3,7 C 5,4 C 0,0 km/h (0 Bft) 0,00 %
07.10.2014 07:00 5,5 C 90 % 1011,0 hPa 0,0 l/m 0,0 km/h (0 Bft) S 175 0 min 0,000 mm 0,0 UV-I 0 W/m 4,0 C 5,5 C 0,0 km/h (0 Bft) 0,00 %
07.10.2014 07:15 5,2 C 89 % 1010,8 hPa 0,0 l/m 0,0 km/h (0 Bft) S 175 0 min 0,000 mm 0,0 UV-I 2 W/m 3,5 C 5,2 C 0,0 km/h (0 Bft) 0,00 %
07.10.2014 07:30 5,3 C 89 % 1010,9 hPa 0,0 l/m 0,0 km/h (0 Bft) SW 216 0 min 0,000 mm 0,0 UV-I 22 W/m 3,6 C 5,3 C 0,0 km/h (0 Bft) 0,00 %
07.10.2014 07:45 6,0 C 89 % 1010,9 hPa 0,0 l/m 0,0 km/h (0 Bft) S-SW 198 0 min 0,000 mm 0,0 UV-I 43 W/m 4,3 C 6,0 C 0,0 km/h (0 Bft) 0,00 %
07.10.2014 08:00 6,4 C 88 % 1010,8 hPa 0,0 l/m 0,0 km/h (0 Bft) S 187 0 min 0,000 mm 1,0 UV-I 59 W/m 4,6 C 6,4 C 0,0 km/h (0 Bft) 0,00 %
07.10.2014 08:15 6,8 C 88 % 1010,7 hPa 0,0 l/m 0,0 km/h (0 Bft) S 191 0 min 0,000 mm 1,0 UV-I 60 W/m 5,0 C 6,8 C 0,0 km/h (0 Bft) 0,00 %
07.10.2014 08:30 7,7 C 87 % 1010,2 hPa 0,0 l/m 0,0 km/h (0 Bft) S-SW 192 0 min 0,000 mm 1,0 UV-I 80 W/m 5,7 C 7,7 C 0,0 km/h (0 Bft) 0,00 %
07.10.2014 08:45 8,8 C 84 % 1009,9 hPa 0,0 l/m 0,0 km/h (0 Bft) N 352 0 min 0,000 mm 1,0 UV-I 83 W/m 6,2 C 8,8 C 0,0 km/h (0 Bft) 0,00 %
07.10.2014 09:00 9,7 C 81 % 1010,0 hPa 0,0 l/m 0,0 km/h (0 Bft) O-SO 108 0 min 0,000 mm 1,0 UV-I 104 W/m 6,6 C 9,7 C 0,0 km/h (0 Bft) 0,00 %
07.10.2014 09:15 11,0 C 75 % 1010,0 hPa 0,0 l/m 0,0 km/h (0 Bft) O-SO 111 0 min 0,000 mm 2,0 UV-I 114 W/m 6,7 C 11,0 C 0,0 km/h (0 Bft) 0,00 %
07.10.2014 09:30 11,2 C 74 % 1009,6 hPa 0,0 l/m 0,7 km/h (0 Bft) NO 56 0 min 0,000 mm 2,0 UV-I 116 W/m 6,7 C 11,2 C 4,0 km/h (1 Bft) 0,00 %
07.10.2014 09:45 11,4 C 72 % 1009,6 hPa 0,0 l/m 9,0 km/h (2 Bft) O-SO 107 0 min 0,000 mm 2,0 UV-I 141 W/m 6,5 C 9,7 C 11,9 km/h (2 Bft) 0,00 %
07.10.2014 10:00 12,2 C 71 % 1009,6 hPa 0,0 l/m 0,4 km/h (0 Bft) O-SO 112 0 min 0,000 mm 2,0 UV-I 181 W/m 7,1 C 12,2 C 4,0 km/h (1 Bft) 0,00 %
07.10.2014 10:15 12,2 C 71 % 1009,4 hPa 0,0 l/m 0,0 km/h (0 Bft) SO 132 0 min 0,000 mm 2,0 UV-I 135 W/m 7,1 C 12,2 C 0,0 km/h (0 Bft) 0,00 %
07.10.2014 10:30 13,1 C 69 % 1009,3 hPa 0,0 l/m 0,0 km/h (0 Bft) NO 44 0 min 0,000 mm 2,0 UV-I 166 W/m 7,5 C 13,1 C 0,0 km/h (0 Bft) 0,00 %
07.10.2014 10:45 13,7 C 67 % 1008,9 hPa 0,0 l/m 0,0 km/h (0 Bft) O-NO 67 0 min 0,000 mm 3,0 UV-I 178 W/m 7,7 C 13,7 C 0,0 km/h (0 Bft) 0,00 %
07.10.2014 11:00 14,0 C 67 % 1008,8 hPa 0,0 l/m 3,2 km/h (1 Bft) O 87 0 min 0,000 mm 3,0 UV-I 207 W/m 8,0 C 14,0 C 4,0 km/h (1 Bft) 0,00 %
07.10.2014 11:15 14,5 C 65 % 1008,7 hPa 0,0 l/m 0,0 km/h (0 Bft) O 90 0 min 0,000 mm 3,0 UV-I 223 W/m 8,0 C 14,5 C 0,0 km/h (0 Bft) 0,00 %
07.10.2014 11:30 14,6 C 64 % 1008,4 hPa 0,0 l/m 5,4 km/h (1 Bft) O-SO 119 0 min 0,000 mm 3,0 UV-I 251 W/m 7,9 C 14,6 C 7,9 km/h (2 Bft) 0,00 %
07.10.2014 11:45 14,9 C 63 % 1008,5 hPa 0,0 l/m 1,8 km/h (1 Bft) NO 55 0 min 0,000 mm 3,0 UV-I 277 W/m 7,9 C 14,9 C 4,0 km/h (1 Bft) 0,00 %
07.10.2014 12:00 14,9 C 63 % 1008,6 hPa 0,0 l/m 0,0 km/h (0 Bft) W-SW 256 0 min 0,000 mm 4,0 UV-I 308 W/m 7,9 C 14,9 C 0,0 km/h (0 Bft) 0,00 %
07.10.2014 12:15 15,3 C 62 % 1008,6 hPa 0,0 l/m 0,0 km/h (0 Bft) SW 218 0 min 0,000 mm 3,0 UV-I 269 W/m 8,1 C 15,3 C 0,0 km/h (0 Bft) 0,00 %
07.10.2014 12:30 15,8 C 61 % 1008,6 hPa 0,0 l/m 0,0 km/h (0 Bft) SO 138 0 min 0,000 mm 2,0 UV-I 140 W/m 8,3 C 15,8 C 0,0 km/h (0 Bft) 0,00 %
07.10.2014 12:45 15,9 C 61 % 1008,2 hPa 0,0 l/m 2,9 km/h (1 Bft) O 100 0 min 0,000 mm 2,0 UV-I 132 W/m 8,4 C 15,9 C 4,0 km/h (1 Bft) 0,00 %
07.10.2014 13:00 15,9 C 61 % 1008,1 hPa 0,0 l/m 0,4 km/h (0 Bft) O-SO 106 0 min 0,000 mm 2,0 UV-I 136 W/m 8,4 C 15,9 C 4,0 km/h (1 Bft) 0,00 %
07.10.2014 13:15 16,1 C 62 % 1008,2 hPa 0,0 l/m 0,0 km/h (0 Bft) O 93 0 min 0,000 mm 2,0 UV-I 142 W/m 8,8 C 16,1 C 0,0 km/h (0 Bft) 0,00 %
07.10.2014 13:30 16,5 C 60 % 1008,1 hPa 0,0 l/m 0,0 km/h (0 Bft) O-SO 108 0 min 0,000 mm 2,0 UV-I 152 W/m 8,7 C 16,5 C 0,0 km/h (0 Bft) 0,00 %
07.10.2014 13:45 16,9 C 60 % 1007,5 hPa 0,0 l/m 0,7 km/h (0 Bft) NO 55 0 min 0,000 mm 2,0 UV-I 169 W/m 9,1 C 16,9 C 4,0 km/h (1 Bft) 0,00 %
07.10.2014 14:00 17,1 C 59 % 1007,6 hPa 0,0 l/m 0,0 km/h (0 Bft) N 3 0 min 0,000 mm 2,0 UV-I 182 W/m 9,0 C 17,1 C 0,0 km/h (0 Bft) 0,00 %
07.10.2014 14:15 17,3 C 60 % 1007,4 hPa 0,0 l/m 2,9 km/h (1 Bft) O 95 0 min 0,000 mm 2,0 UV-I 182 W/m 9,5 C 17,3 C 7,9 km/h (2 Bft) 0,00 %
07.10.2014 14:30 17,7 C 58 % 1007,4 hPa 0,0 l/m 4,7 km/h (1 Bft) O 81 0 min 0,000 mm 2,0 UV-I 193 W/m 9,3 C 17,7 C 7,9 km/h (2 Bft) 0,00 %
07.10.2014 14:45 17,8 C 57 % 1007,4 hPa 0,0 l/m 1,8 km/h (1 Bft) O 100 0 min 0,000 mm 2,0 UV-I 164 W/m 9,2 C 17,8 C 4,0 km/h (1 Bft) 0,00 %
07.10.2014 15:00 18,0 C 56 % 1007,5 hPa 0,0 l/m 10,8 km/h (2 Bft) O-SO 112 0 min 0,000 mm 2,0 UV-I 173 W/m 9,1 C 16,1 C 11,9 km/h (2 Bft) 0,00 %
07.10.2014 15:15 18,1 C 57 % 1007,5 hPa 0,0 l/m 3,2 km/h (1 Bft) O-NO 65 0 min 0,000 mm 2,0 UV-I 193 W/m 9,4 C 18,1 C 4,0 km/h (1 Bft) 0,00 %
07.10.2014 15:30 18,2 C 56 % 1007,7 hPa 0,0 l/m 9,7 km/h (2 Bft) O 100 0 min 0,000 mm 2,0 UV-I 195 W/m 9,3 C 16,8 C 11,9 km/h (2 Bft) 0,00 %
07.10.2014 15:45 18,1 C 57 % 1007,3 hPa 0,0 l/m 8,3 km/h (2 Bft) O 95 0 min 0,000 mm 2,0 UV-I 198 W/m 9,4 C 17,2 C 11,9 km/h (2 Bft) 0,00 %
07.10.2014 16:00 18,2 C 56 % 1007,4 hPa 0,0 l/m 0,4 km/h (0 Bft) S 182 0 min 0,000 mm 2,0 UV-I 198 W/m 9,3 C 18,2 C 4,0 km/h (1 Bft) 0,00 %
07.10.2014 16:15 18,1 C 58 % 1007,4 hPa 0,0 l/m 4,7 km/h (1 Bft) O 89 0 min 0,000 mm 1,0 UV-I 184 W/m 9,7 C 18,1 C 7,9 km/h (2 Bft) 0,00 %
07.10.2014 16:30 18,1 C 59 % 1007,5 hPa 0,0 l/m 4,7 km/h (1 Bft) O-SO 112 15 min 0,000 mm 1,0 UV-I 177 W/m 10,0 C 18,1 C 7,9 km/h (2 Bft) 0,00 %
07.10.2014 16:45 17,9 C 59 % 1007,6 hPa 0,0 l/m 3,2 km/h (1 Bft) S 182 15 min 0,000 mm 1,0 UV-I 243 W/m 9,8 C 17,9 C 4,0 km/h (1 Bft) 0,00 %
07.10.2014 17:00 17,6 C 61 % 1008,0 hPa 0,0 l/m 2,2 km/h (1 Bft) S-SO 158 15 min 0,000 mm 1,0 UV-I 161 W/m 10,0 C 17,6 C 4,0 km/h (1 Bft) 0,00 %
07.10.2014 17:15 17,2 C 62 % 1008,0 hPa 0,0 l/m 0,4 km/h (0 Bft) O-SO 103 0 min 0,000 mm 1,0 UV-I 98 W/m 9,9 C 17,2 C 4,0 km/h (1 Bft) 0,00 %
07.10.2014 17:30 16,8 C 64 % 1008,2 hPa 0,0 l/m 0,4 km/h (0 Bft) O-SO 122 15 min 0,000 mm 1,0 UV-I 94 W/m 10,0 C 16,8 C 4,0 km/h (1 Bft) 0,00 %
07.10.2014 17:45 16,4 C 68 % 1008,6 hPa 0,0 l/m 0,7 km/h (0 Bft) O-SO 122 0 min 0,000 mm 0,0 UV-I 52 W/m 10,5 C 16,4 C 4,0 km/h (1 Bft) 0,00 %
07.10.2014 18:00 15,8 C 69 % 1008,6 hPa 0,0 l/m 0,0 km/h (0 Bft) O-SO 105 0 min 0,000 mm 0,0 UV-I 25 W/m 10,1 C 15,8 C 0,0 km/h (0 Bft) 0,00 %
07.10.2014 18:15 15,3 C 71 % 1008,8 hPa 0,0 l/m 0,0 km/h (0 Bft) O-SO 113 0 min 0,000 mm 0,0 UV-I 3 W/m 10,1 C 15,3 C 0,0 km/h (0 Bft) 0,00 %
07.10.2014 18:30 14,8 C 73 % 1008,7 hPa 0,0 l/m 0,0 km/h (0 Bft) S 185 0 min 0,000 mm 0,0 UV-I 0 W/m 10,0 C 14,8 C 0,0 km/h (0 Bft) 0,00 %
07.10.2014 18:45 14,6 C 73 % 1008,8 hPa 0,0 l/m 0,4 km/h (0 Bft) O-SO 110 0 min 0,000 mm 0,0 UV-I 0 W/m 9,8 C 14,6 C 4,0 km/h (1 Bft) 0,00 %
07.10.2014 19:00 14,6 C 72 % 1008,9 hPa 0,0 l/m 1,4 km/h (1 Bft) O-SO 112 0 min 0,000 mm 0,0 UV-I 0 W/m 9,6 C 14,6 C 4,0 km/h (1 Bft) 0,00 %
07.10.2014 19:15 14,6 C 72 % 1009,0 hPa 0,0 l/m 3,2 km/h (1 Bft) O-SO 115 0 min 0,000 mm 0,0 UV-I 0 W/m 9,6 C 14,6 C 4,0 km/h (1 Bft) 0,00 %
07.10.2014 19:30 14,5 C 72 % 1009,2 hPa 0,0 l/m 7,2 km/h (2 Bft) O-SO 111 0 min 0,000 mm 0,0 UV-I 0 W/m 9,5 C 14,0 C 11,9 km/h (2 Bft) 0,00 %
07.10.2014 19:45 14,3 C 73 % 1009,6 hPa 0,0 l/m 0,0 km/h (0 Bft) S-SO 153 0 min 0,000 mm 0,0 UV-I 0 W/m 9,5 C 14,3 C 0,0 km/h (0 Bft) 0,00 %
07.10.2014 20:00 13,9 C 74 % 1009,8 hPa 0,0 l/m 0,0 km/h (0 Bft) S 173 0 min 0,000 mm 0,0 UV-I 0 W/m 9,3 C 13,9 C 0,0 km/h (0 Bft) 0,00 %
07.10.2014 20:15 13,4 C 77 % 1010,2 hPa 0,0 l/m 0,0 km/h (0 Bft) O-SO 111 0 min 0,000 mm 0,0 UV-I 0 W/m 9,5 C 13,4 C 0,0 km/h (0 Bft) 0,00 %
07.10.2014 20:30 13,1 C 77 % 1010,2 hPa 0,0 l/m 0,0 km/h (0 Bft) S 174 0 min 0,000 mm 0,0 UV-I 0 W/m 9,2 C 13,1 C 0,0 km/h (0 Bft) 0,00 %
07.10.2014 20:45 12,9 C 78 % 1010,3 hPa 0,0 l/m 0,0 km/h (0 Bft) O-SO 123 0 min 0,000 mm 0,0 UV-I 0 W/m 9,2 C 12,9 C 0,0 km/h (0 Bft) 0,00 %
07.10.2014 21:00 12,6 C 79 % 1010,2 hPa 0,0 l/m 0,0 km/h (0 Bft) O-SO 103 0 min 0,000 mm 0,0 UV-I 0 W/m 9,1 C 12,6 C 0,0 km/h (0 Bft) 0,00 %
07.10.2014 21:15 12,4 C 79 % 1010,3 hPa 0,0 l/m 0,4 km/h (0 Bft) O-SO 106 0 min 0,000 mm 0,0 UV-I 0 W/m 8,9 C 12,4 C 4,0 km/h (1 Bft) 0,00 %
07.10.2014 21:30 12,3 C 79 % 1010,5 hPa 0,0 l/m 1,4 km/h (1 Bft) O-SO 114 0 min 0,000 mm 0,0 UV-I 0 W/m 8,8 C 12,3 C 4,0 km/h (1 Bft) 0,00 %
07.10.2014 21:45 12,0 C 80 % 1010,6 hPa 0,0 l/m 0,0 km/h (0 Bft) O-SO 109 0 min 0,000 mm 0,0 UV-I 0 W/m 8,7 C 12,0 C 0,0 km/h (0 Bft) 0,00 %
07.10.2014 22:00 12,0 C 80 % 1010,5 hPa 0,0 l/m 0,7 km/h (0 Bft) O-SO 109 0 min 0,000 mm 0,0 UV-I 0 W/m 8,7 C 12,0 C 4,0 km/h (1 Bft) 0,00 %
07.10.2014 22:15 12,0 C 80 % 1010,6 hPa 0,0 l/m 0,7 km/h (0 Bft) O-SO 104 0 min 0,000 mm 0,0 UV-I 0 W/m 8,7 C 12,0 C 4,0 km/h (1 Bft) 0,00 %
07.10.2014 22:30 11,7 C 80 % 1010,6 hPa 0,0 l/m 1,8 km/h (1 Bft) S-SO 150 0 min 0,000 mm 0,0 UV-I 0 W/m 8,4 C 11,7 C 4,0 km/h (1 Bft) 0,00 %
07.10.2014 22:45 11,6 C 80 % 1010,5 hPa 0,0 l/m 2,9 km/h (1 Bft) O-SO 115 0 min 0,000 mm 0,0 UV-I 0 W/m 8,3 C 11,6 C 4,0 km/h (1 Bft) 0,00 %
07.10.2014 23:00 11,7 C 80 % 1010,5 hPa 0,0 l/m 0,4 km/h (0 Bft) SO 130 0 min 0,000 mm 0,0 UV-I 0 W/m 8,4 C 11,7 C 4,0 km/h (1 Bft) 0,00 %
07.10.2014 23:15 11,7 C 80 % 1010,5 hPa 0,0 l/m 0,7 km/h (0 Bft) S 172 0 min 0,000 mm 0,0 UV-I 0 W/m 8,4 C 11,7 C 4,0 km/h (1 Bft) 0,00 %
07.10.2014 23:30 11,5 C 80 % 1010,8 hPa 0,0 l/m 0,0 km/h (0 Bft) N 352 0 min 0,000 mm 0,0 UV-I 0 W/m 8,2 C 11,5 C 0,0 km/h (0 Bft) 0,00 %
07.10.2014 23:45 11,2 C 81 % 1010,7 hPa 0,0 l/m 0,4 km/h (0 Bft) O 101 0 min 0,000 mm 0,0 UV-I 0 W/m 8,1 C 11,2 C 4,0 km/h (1 Bft) 0,00 %
_ Min-Zeit 06:30 15:00 15:45 - 00:00 - - - - - - 07:15 06:30 00:00 00:00
Minimum _ 5,2 C 56 % 1007,3 hPa - 0,0 km/h (0 Bft) - - - - - - 3,5 C 5,2 C 0,0 km/h (0 Bft) 0,00 %
_ Max-Zeit 15:30 06:30 07:00 00:00 15:00 - - 16:30 00:00 12:00 12:00 17:45 16:00 09:45 00:00
Maximum _ 18,2 C 90 % 1011,0 hPa 0,0 l/m 10,8 km/h
O-SO (2 Bft)
- - 15 min 0,000 mm 4,0 UV-I 308 W/m 10,5 C 18,2 C 11,9 km/h
O-SO (2 Bft)
0,00 %
Durchschnitt _ 11,6 C 76 % 1009,5 hPa #0,0 l/m 1,1 km/h (1 Bft) O-SO - #1:00 h #0,000 mm 1,9 UV-I 147 W/m 7,3 C 11,6 C 2,2 km/h (1 Bft) 0,00 %